Regional Weather Roundup
Issued by NWS

Home | Current Version | Previous Version | Graphics & Text | Print | Product List | Glossary On
Versions: 1 2 3 4 5 6 7 8 9 10 11 12 13 14 15 16 17 18 19 20 21 22 23 24 25 26 27 28 29 30 31 32 33 34 35 36 37 38 39 40 41 42 43 44 45 46 47 48 49
000
ASUS45 KSLC 071210
RWRUT

UTAH REGIONAL WEATHER ROUNDUP
NATIONAL WEATHER SERVICE SALT LAKE CITY UT
500 AM MST SUN FEB 07 2016

UTZ001>011-023>025-071300-

NORTHERN UTAH

CITY           SKY/WX    TMP DP  RH WIND       PRES   REMARKS
BRIGHAM CITY   PTCLDY    18  15  90 CALM      30.52S
HILL AFB       PTCLDY    22  14  70 SE3       30.49R
LOGAN          PTCLDY    16  14  92 CALM      30.50S FOG
OGDEN          PTCLDY    24  18  77 S7        30.50R WCI  16
PROVO AIRPORT  PTCLDY    12  10  92 CALM      30.51S
SALT LAKE CITY PTCLDY    24  19  81 E8        30.50R WCI  15
VERNAL         CLOUDY    10   5  80 NW3       30.43F
WENDOVER       PTCLDY    21  18  86 CALM      30.52S
HEBER CITY     PTCLDY     5   3  92 CALM      30.46R
WEST JORDAN    CLEAR     25  19  80 CALM      30.51R

$$

UTZ012>022-026-027-071300-

SOUTHERN/CENTRAL UTAH

CITY           SKY/WX    TMP DP  RH WIND       PRES   REMARKS
BLANDING       PTCLDY    16  13  86 N3        30.47S
BRYCE CANYON   PTCLDY     4   0  83 W6        30.44R WCI  -7
CEDAR CITY     PTCLDY     7   3  84 E3        30.44R
DELTA          CLOUDY     4   1  88 CALM      30.51S VSB<1/4
HANKSVILLE     CLOUDY    18  16  93 CALM      30.56R VSB 1/2
MILFORD        FOG       -3  -6  87 S7        30.49R VSB 1/2 WCI -16
MOAB/CYNLANDS  CLOUDY    10   7  87 CALM      30.50S
PRICE          PTCLDY     9   4  80 CALM      30.42S
ST GEORGE      MOSUNNY   34  21  60 CALM      30.43R
KANAB          CLEAR     30  25  80 N6        30.44S WCI  24

$$

REGIONAL REPORTS     COLORADO/ARIZONA

CITY           SKY/WX    TMP DP  RH WIND       PRES   REMARKS
CRAIG, CO      CLOUDY    -1  -5  82 W5        30.38F WCI -11
GRAND JUNCTION CLOUDY     9   8  96 E5        30.48F WCI   1
RIFLE          CLOUDY    10   7  87 CALM      30.48R
MONTROSE       CLOUDY    16   9  74 S7        30.48R WCI   6
CORTEZ         CLOUDY    12   7  80 E8        30.39F WCI   0
PAGE, AZ       PTCLDY    26  22  84 SE5       30.44S WCI  20
GRAND CANYON   PTCLDY    19  11  70 NE7       30.38F WCI  10
KINGMAN        CLEAR     36  23  59 E9        30.32F WCI  29
FLAGSTAFF      PTCLDY    14   8  77 CALM      30.37F

$$

REGIONAL REPORTS    NEVADA/IDAHO/WYOMING

CITY           SKY/WX    TMP DP  RH WIND       PRES   REMARKS
LAS VEGAS, NV  CLEAR     44  26  49 W5        30.31S
ELY            PTCLDY     7   0  73 S12       30.50R WCI  -8
ELKO           CLOUDY     9   5  84 E3        30.56R
POCATELLO, ID  CLOUDY    30  25  81 SW8       30.48S WCI  22
BURLEY         PTCLDY    31  26  82 W5        30.46R WCI  26
EVANSTON, WY   CLOUDY    24  13  62 W24       30.40S WCI   8
ROCK SPRINGS   CLOUDY    25  16  68 W20       30.35R WCI  11

$$



USA.gov is the U.S. government's official web portal to all federal, state and local government web resources and services.